Location: *
(41.7492°S, 135.4150°W)
Time: 18:30:11
(UTC+00:00)

Meteor 1-27 Rocket - Pass Details

Date: 20 September 2021
Orbit: 830 x 910 km, 81.3° (Epoch: 15 October)

Event Time Altitude Azimuth Distance (km) Brightness Sun altitude
Rises 12:47:13 0° 190° (S) 3,420 7.0 -23.9°
Reaches altitude 10° 12:49:37 10° 190° (S) 2,485 6.3 -23.5°
Maximum altitude 12:55:17 90° 95° (E) 862 3.6 -22.5°
Drops below altitude 10° 13:00:57 10° 8° (N) 2,497 6.0 -21.5°
Sets 13:03:23 0° 8° (N) 3,438 6.8 -21.1°
